Time,TemperatureF,DewpointF,PressureIn,WindDirection,WindDirectionDegrees,WindSpeedMPH,WindSpeedGustMPH,Humidity,HourlyPrecipIn,Conditions,Clouds,dailyrainin,SoftwareType,DateUTC
2013-06-04 00:01:00,73.0,63.8,29.80,SE,143,0.0,0.0,73,0.00,,,0.00,WeatherCatV1.02B3,2013-06-04 05:01:00,
2013-06-04 00:06:00,72.9,64.1,29.80,ESE,105,3.0,3.0,74,0.00,,,0.00,WeatherCatV1.02B3,2013-06-04 05:06:00,
2013-06-04 00:11:00,72.8,64.0,29.80,SSE,156,0.0,0.0,74,0.00,,,0.00,WeatherCatV1.02B3,2013-06-04 05:11:00,
2013-06-04 00:16:00,72.7,63.9,29.80,SSE,156,0.0,0.0,74,0.00,,,0.00,WeatherCatV1.02B3,2013-06-04 05:16:00,
2013-06-04 00:21:00,72.6,63.8,29.80,SE,126,0.0,0.0,74,0.00,,,0.00,WeatherCatV1.02B3,2013-06-04 05:21:00,
2013-06-04 00:26:00,72.6,63.8,29.80,SE,130,0.0,1.0,74,0.00,,,0.00,WeatherCatV1.02B3,2013-06-04 05:26:00,
2013-06-04 00:31:00,72.5,64.1,29.80,ESE,123,0.0,0.0,75,0.00,,,0.00,WeatherCatV1.02B3,2013-06-04 05:31:00,
2013-06-04 00:36:00,72.4,64.0,29.80,SSE,149,0.0,1.0,75,0.00,,,0.00,WeatherCatV1.02B3,2013-06-04 05:36:00,
2013-06-04 00:42:00,72.4,64.0,29.80,SE,141,0.0,0.0,75,0.00,,,0.00,WeatherCatV1.02B3,2013-06-04 05:42:00,
2013-06-04 00:47:00,72.4,64.0,29.80,SE,141,0.0,1.0,75,0.00,,,0.00,WeatherCatV1.02B3,2013-06-04 05:47:00,
2013-06-04 00:52:00,72.3,63.9,29.80,ESE,117,0.0,0.0,75,0.00,,,0.00,WeatherCatV1.02B3,2013-06-04 05:52:00,
2013-06-04 00:57:00,72.3,63.9,29.80,SE,130,0.0,2.0,75,0.00,,,0.00,WeatherCatV1.02B3,2013-06-04 05:57:00,
2013-06-04 01:02:00,72.2,63.8,29.80,SE,129,0.0,0.0,75,0.00,,,0.00,WeatherCatV1.02B3,2013-06-04 06:02:00,
2013-06-04 01:07:00,72.2,64.2,29.80,SE,128,0.0,1.0,76,0.00,,,0.00,WeatherCatV1.02B3,2013-06-04 06:07:00,
2013-06-04 01:12:00,72.2,64.2,29.80,SSE,152,0.0,0.0,76,0.00,,,0.00,WeatherCatV1.02B3,2013-06-04 06:12:00,
2013-06-04 01:17:00,72.2,64.2,29.79,South,171,0.0,5.0,76,0.00,,,0.00,WeatherCatV1.02B3,2013-06-04 06:17:00,
2013-06-04 01:22:00,72.1,64.1,29.79,South,185,0.0,3.0,76,0.00,,,0.00,WeatherCatV1.02B3,2013-06-04 06:22:00,
2013-06-04 01:27:00,72.1,64.5,29.79,South,171,0.0,0.0,77,0.00,,,0.00,WeatherCatV1.02B3,2013-06-04 06:27:00,
2013-06-04 01:32:00,72.0,64.4,29.78,ESE,123,0.0,2.0,77,0.00,,,0.00,WeatherCatV1.02B3,2013-06-04 06:32:00,
2013-06-04 01:37:00,72.0,64.4,29.78,East,96,0.0,2.0,77,0.00,,,0.00,WeatherCatV1.02B3,2013-06-04 06:37:00,
2013-06-04 01:42:00,72.0,64.4,29.78,SE,144,0.0,0.0,77,0.00,,,0.00,WeatherCatV1.02B3,2013-06-04 06:42:00,
2013-06-04 01:47:00,72.0,64.4,29.78,SSE,158,0.0,2.0,77,0.00,,,0.00,WeatherCatV1.02B3,2013-06-04 06:47:00,
2013-06-04 01:53:00,72.0,64.4,29.78,SE,146,0.0,0.0,77,0.00,,,0.00,WeatherCatV1.02B3,2013-06-04 06:53:00,
2013-06-04 01:58:00,71.9,64.7,29.78,SSE,154,2.0,3.0,78,0.00,,,0.00,WeatherCatV1.02B3,2013-06-04 06:58:00,
2013-06-04 02:03:00,71.9,64.7,29.78,SSE,157,0.0,4.0,78,0.00,,,0.00,WeatherCatV1.02B3,2013-06-04 07:03:00,
2013-06-04 02:08:00,71.9,64.7,29.78,ESE,121,0.0,3.0,78,0.00,,,0.00,WeatherCatV1.02B3,2013-06-04 07:08:00,
2013-06-04 02:13:00,71.9,64.7,29.78,SSE,162,0.0,3.0,78,0.00,,,0.00,WeatherCatV1.02B3,2013-06-04 07:13:00,
2013-06-04 02:18:00,71.9,64.7,29.78,SE,136,4.0,5.0,78,0.00,,,0.00,WeatherCatV1.02B3,2013-06-04 07:18:00,
2013-06-04 02:23:00,71.8,64.6,29.78,SE,124,4.0,5.0,78,0.00,,,0.00,WeatherCatV1.02B3,2013-06-04 07:23:00,
2013-06-04 02:28:00,71.7,64.5,29.78,SSW,208,0.0,3.0,78,0.00,,,0.00,WeatherCatV1.02B3,2013-06-04 07:28:00,
2013-06-04 02:33:00,71.7,64.5,29.78,South,183,0.0,0.0,78,0.00,,,0.00,WeatherCatV1.02B3,2013-06-04 07:33:00,
2013-06-04 02:38:00,71.6,64.4,29.78,South,171,3.0,3.0,78,0.00,,,0.00,WeatherCatV1.02B3,2013-06-04 07:38:00,
2013-06-04 02:43:00,71.5,64.6,29.78,SE,130,0.0,0.0,79,0.00,,,0.00,WeatherCatV1.02B3,2013-06-04 07:43:00,
2013-06-04 02:48:00,71.4,64.5,29.79,SSE,167,0.0,0.0,79,0.00,,,0.00,WeatherCatV1.02B3,2013-06-04 07:48:00,
2013-06-04 02:53:00,71.3,64.4,29.79,South,176,0.0,0.0,79,0.00,,,0.00,WeatherCatV1.02B3,2013-06-04 07:53:00,
2013-06-04 02:58:00,71.2,64.7,29.79,SSE,152,0.0,0.0,80,0.00,,,0.00,WeatherCatV1.02B3,2013-06-04 07:58:00,
2013-06-04 03:03:00,71.1,64.6,29.79,SE,136,0.0,0.0,80,0.00,,,0.00,WeatherCatV1.02B3,2013-06-04 08:03:00,
2013-06-04 03:08:00,71.0,64.5,29.79,SSE,163,0.0,0.0,80,0.00,,,0.00,WeatherCatV1.02B3,2013-06-04 08:08:00,
2013-06-04 03:13:00,70.8,64.3,29.79,SSE,150,0.0,1.0,80,0.00,,,0.00,WeatherCatV1.02B3,2013-06-04 08:13:00,
2013-06-04 03:18:00,70.7,64.2,29.78,South,190,0.0,0.0,80,0.00,,,0.00,WeatherCatV1.02B3,2013-06-04 08:18:00,
2013-06-04 03:23:00,70.6,64.5,29.78,SE,127,0.0,0.0,81,0.00,,,0.00,WeatherCatV1.02B3,2013-06-04 08:23:00,
2013-06-04 03:28:00,70.5,64.4,29.78,SSE,161,0.0,0.0,81,0.00,,,0.00,WeatherCatV1.02B3,2013-06-04 08:28:00,
2013-06-04 03:33:00,70.4,64.3,29.78,SE,140,0.0,0.0,81,0.00,,,0.00,WeatherCatV1.02B3,2013-06-04 08:33:00,
2013-06-04 03:38:00,70.4,64.3,29.78,ESE,120,0.0,2.0,81,0.00,,,0.00,WeatherCatV1.02B3,2013-06-04 08:38:00,
2013-06-04 03:43:00,70.3,64.2,29.78,SE,144,0.0,0.0,81,0.00,,,0.00,WeatherCatV1.02B3,2013-06-04 08:43:00,
2013-06-04 03:48:00,70.2,64.1,29.77,SE,146,0.0,2.0,81,0.00,,,0.00,WeatherCatV1.02B3,2013-06-04 08:48:00,
2013-06-04 03:53:00,70.1,64.0,29.77,SSE,147,0.0,1.0,81,0.00,,,0.00,WeatherCatV1.02B3,2013-06-04 08:53:00,
2013-06-04 03:58:00,70.1,64.0,29.77,South,170,0.0,0.0,81,0.00,,,0.00,WeatherCatV1.02B3,2013-06-04 08:58:00,
2013-06-04 04:03:00,70.0,63.9,29.76,South,188,0.0,2.0,81,0.00,,,0.00,WeatherCatV1.02B3,2013-06-04 09:03:00,
2013-06-04 04:08:00,70.0,63.9,29.76,SSW,202,2.0,6.0,81,0.00,,,0.00,WeatherCatV1.02B3,2013-06-04 09:08:00,
2013-06-04 04:13:00,70.0,63.9,29.76,South,189,0.0,6.0,81,0.00,,,0.00,WeatherCatV1.02B3,2013-06-04 09:13:00,
2013-06-04 04:18:00,69.9,63.8,29.76,SSE,149,0.0,8.0,81,0.00,,,0.00,WeatherCatV1.02B3,2013-06-04 09:18:00,
2013-06-04 04:23:00,69.9,63.8,29.76,South,188,0.0,2.0,81,0.00,,,0.00,WeatherCatV1.02B3,2013-06-04 09:23:00,
2013-06-04 04:28:00,70.0,63.9,29.76,South,173,1.0,2.0,81,0.00,,,0.00,WeatherCatV1.02B3,2013-06-04 09:28:00,
2013-06-04 04:33:00,70.0,63.9,29.76,SSE,153,1.0,6.0,81,0.00,,,0.00,WeatherCatV1.02B3,2013-06-04 09:33:00,
2013-06-04 04:38:00,70.1,64.0,29.76,South,177,0.0,3.0,81,0.00,,,0.00,WeatherCatV1.02B3,2013-06-04 09:38:00,
2013-06-04 04:43:00,70.1,63.6,29.76,SE,126,0.0,5.0,80,0.00,,,0.00,WeatherCatV1.02B3,2013-06-04 09:43:00,
2013-06-04 04:48:00,70.2,63.7,29.76,SE,126,0.0,6.0,80,0.00,,,0.00,WeatherCatV1.02B3,2013-06-04 09:48:00,
2013-06-04 04:53:00,70.2,63.7,29.76,SSE,148,1.0,5.0,80,0.00,,,0.00,WeatherCatV1.02B3,2013-06-04 09:53:00,
2013-06-04 04:58:00,70.2,63.7,29.76,SSE,148,0.0,3.0,80,0.00,,,0.00,WeatherCatV1.02B3,2013-06-04 09:58:00,
2013-06-04 05:03:00,70.1,63.6,29.76,South,173,3.0,5.0,80,0.00,,,0.00,WeatherCatV1.02B3,2013-06-04 10:03:00,
2013-06-04 05:08:00,70.1,64.0,29.76,SSE,159,1.0,3.0,81,0.00,,,0.00,WeatherCatV1.02B3,2013-06-04 10:08:00,
2013-06-04 05:13:00,70.0,63.9,29.76,SSE,159,0.0,5.0,81,0.00,,,0.00,WeatherCatV1.02B3,2013-06-04 10:13:00,
2013-06-04 05:18:00,69.9,63.8,29.77,SE,144,2.0,6.0,81,0.00,,,0.00,WeatherCatV1.02B3,2013-06-04 10:18:00,
2013-06-04 05:23:00,69.8,63.7,29.77,SSE,154,0.0,0.0,81,0.00,,,0.00,WeatherCatV1.02B3,2013-06-04 10:23:00,
2013-06-04 05:28:00,69.7,63.9,29.77,SSE,167,2.0,6.0,82,0.00,,,0.00,WeatherCatV1.02B3,2013-06-04 10:28:00,
2013-06-04 05:33:00,69.5,63.8,29.77,SSE,148,3.0,5.0,82,0.00,,,0.00,WeatherCatV1.02B3,2013-06-04 10:33:00,
2013-06-04 05:38:00,69.4,63.7,29.77,SSE,157,0.0,5.0,82,0.00,,,0.00,WeatherCatV1.02B3,2013-06-04 10:38:00,
2013-06-04 05:43:00,69.3,63.6,29.77,SSE,159,0.0,4.0,82,0.00,,,0.00,WeatherCatV1.02B3,2013-06-04 10:43:00,
2013-06-04 05:48:00,69.2,63.8,29.77,SE,131,0.0,0.0,83,0.00,,,0.00,WeatherCatV1.02B3,2013-06-04 10:48:00,
2013-06-04 05:53:00,69.1,63.7,29.77,SSE,150,0.0,0.0,83,0.00,,,0.00,WeatherCatV1.02B3,2013-06-04 10:53:00,
2013-06-04 05:58:00,69.0,63.6,29.77,SSE,163,0.0,3.0,83,0.00,,,0.00,WeatherCatV1.02B3,2013-06-04 10:58:00,
2013-06-04 06:03:00,69.0,63.6,29.78,SE,140,0.0,1.0,83,0.00,,,0.00,WeatherCatV1.02B3,2013-06-04 11:03:00,
2013-06-04 06:08:00,68.9,63.5,29.78,South,188,0.0,1.0,83,0.00,,,0.00,WeatherCatV1.02B3,2013-06-04 11:08:00,
2013-06-04 06:13:00,68.9,63.5,29.78,SSE,168,0.0,0.0,83,0.00,,,0.00,WeatherCatV1.02B3,2013-06-04 11:13:00,
2013-06-04 06:18:00,68.8,63.8,29.79,SE,144,0.0,0.0,84,0.00,,,0.00,WeatherCatV1.02B3,2013-06-04 11:18:00,
2013-06-04 06:23:00,68.7,63.7,29.79,South,171,0.0,0.0,84,0.00,,,0.00,WeatherCatV1.02B3,2013-06-04 11:23:00,
2013-06-04 06:28:00,68.6,63.6,29.79,SE,130,0.0,0.0,84,0.00,,,0.00,WeatherCatV1.02B3,2013-06-04 11:28:00,
2013-06-04 06:33:00,68.6,63.6,29.80,South,169,0.0,0.0,84,0.00,,,0.00,WeatherCatV1.02B3,2013-06-04 11:33:00,
2013-06-04 06:38:00,68.6,63.9,29.80,East,81,0.0,0.0,85,0.00,,,0.00,WeatherCatV1.02B3,2013-06-04 11:38:00,
2013-06-04 06:43:00,68.5,63.8,29.80,South,190,0.0,0.0,85,0.00,,,0.00,WeatherCatV1.02B3,2013-06-04 11:43:00,
2013-06-04 06:48:00,68.5,63.8,29.80,SSE,166,0.0,1.0,85,0.00,,,0.00,WeatherCatV1.02B3,2013-06-04 11:48:00,
2013-06-04 06:53:00,68.5,63.8,29.80,ESE,119,0.0,0.0,85,0.00,,,0.00,WeatherCatV1.02B3,2013-06-04 11:53:00,
2013-06-04 06:58:00,68.5,63.8,29.80,SSE,161,0.0,0.0,85,0.00,,,0.00,WeatherCatV1.02B3,2013-06-04 11:58:00,
2013-06-04 07:03:00,68.5,64.1,29.80,SE,129,0.0,0.0,86,0.00,,,0.00,WeatherCatV1.02B3,2013-06-04 12:03:00,
2013-06-04 07:08:00,68.6,64.2,29.80,SSE,147,0.0,0.0,86,0.00,,,0.00,WeatherCatV1.02B3,2013-06-04 12:08:00,
2013-06-04 07:13:00,68.7,64.3,29.80,South,178,0.0,1.0,86,0.00,,,0.00,WeatherCatV1.02B3,2013-06-04 12:13:00,
2013-06-04 07:18:00,68.8,64.4,29.81,SSE,161,0.0,1.0,86,0.00,,,0.00,WeatherCatV1.02B3,2013-06-04 12:18:00,
2013-06-04 07:23:00,69.0,64.6,29.81,South,186,0.0,2.0,86,0.00,,,0.00,WeatherCatV1.02B3,2013-06-04 12:23:00,
2013-06-04 07:28:00,69.1,64.7,29.81,East,101,0.0,5.0,86,0.00,,,0.00,WeatherCatV1.02B3,2013-06-04 12:28:00,
2013-06-04 07:33:00,69.4,65.0,29.81,South,190,0.0,2.0,86,0.00,,,0.00,WeatherCatV1.02B3,2013-06-04 12:33:00,
2013-06-04 07:38:00,69.6,64.9,29.81,SE,137,0.0,1.0,85,0.00,,,0.00,WeatherCatV1.02B3,2013-06-04 12:38:00,
2013-06-04 07:43:00,69.8,65.1,29.81,SSE,165,0.0,9.0,85,0.00,,,0.00,WeatherCatV1.02B3,2013-06-04 12:43:00,
2013-06-04 07:48:00,70.1,65.4,29.80,SE,125,0.0,4.0,85,0.00,,,0.00,WeatherCatV1.02B3,2013-06-04 12:48:00,
2013-06-04 07:53:00,70.3,65.6,29.80,SSW,200,0.0,4.0,85,0.00,,,0.00,WeatherCatV1.02B3,2013-06-04 12:53:00,
2013-06-04 07:58:00,70.6,65.5,29.80,South,175,0.0,5.0,84,0.00,,,0.00,WeatherCatV1.02B3,2013-06-04 12:58:00,
2013-06-04 08:03:00,71.0,65.9,29.82,SE,132,4.0,7.0,84,0.00,,,0.00,WeatherCatV1.02B3,2013-06-04 13:03:00,
2013-06-04 08:08:00,71.3,65.9,29.82,SSE,165,0.0,4.0,83,0.00,,,0.00,WeatherCatV1.02B3,2013-06-04 13:08:00,
2013-06-04 08:13:00,71.6,66.5,29.82,South,186,1.0,7.0,84,0.00,,,0.00,WeatherCatV1.02B3,2013-06-04 13:13:00,
2013-06-04 08:18:00,71.9,66.4,29.82,SSE,163,2.0,7.0,83,0.00,,,0.00,WeatherCatV1.02B3,2013-06-04 13:18:00,
2013-06-04 08:23:00,72.1,66.6,29.82,SSE,150,0.0,4.0,83,0.00,,,0.00,WeatherCatV1.02B3,2013-06-04 13:23:00,
2013-06-04 08:28:00,72.4,66.6,29.82,SE,144,0.0,4.0,82,0.00,,,0.00,WeatherCatV1.02B3,2013-06-04 13:28:00,
2013-06-04 08:33:00,72.6,66.8,29.85,SSW,202,0.0,0.0,82,0.00,,,0.00,WeatherCatV1.02B3,2013-06-04 13:33:00,
2013-06-04 08:38:00,72.9,66.7,29.85,SE,126,0.0,1.0,81,0.00,,,0.00,WeatherCatV1.02B3,2013-06-04 13:38:00,
2013-06-04 08:43:00,73.3,67.1,29.85,ENE,67,0.0,0.0,81,0.00,,,0.00,WeatherCatV1.02B3,2013-06-04 13:43:00,
2013-06-04 08:48:00,73.7,67.5,29.88,SSE,161,0.0,1.0,81,0.00,,,0.00,WeatherCatV1.02B3,2013-06-04 13:48:00,
2013-06-04 08:53:00,74.1,67.9,29.88,South,184,0.0,0.0,81,0.00,,,0.00,WeatherCatV1.02B3,2013-06-04 13:53:00,
2013-06-04 08:58:00,74.4,67.4,29.88,SSE,150,0.0,0.0,79,0.00,,,0.00,WeatherCatV1.02B3,2013-06-04 13:58:00,
2013-06-04 09:03:00,74.7,67.4,29.89,SSW,192,0.0,0.0,78,0.00,,,0.00,WeatherCatV1.02B3,2013-06-04 14:03:00,
2013-06-04 09:08:00,74.9,67.6,29.89,SSW,192,0.0,0.0,78,0.00,,,0.00,WeatherCatV1.02B3,2013-06-04 14:08:00,
2013-06-04 09:13:00,75.0,67.7,29.89,SSW,192,0.0,0.0,78,0.00,,,0.00,WeatherCatV1.02B3,2013-06-04 14:13:00,
2013-06-04 09:18:00,75.2,67.5,29.90,SSW,192,0.0,0.0,77,0.00,,,0.00,WeatherCatV1.02B3,2013-06-04 14:18:00,
2013-06-04 09:23:00,75.4,68.0,29.90,SSW,192,0.0,0.0,78,0.00,,,0.00,WeatherCatV1.02B3,2013-06-04 14:23:00,
2013-06-04 09:28:00,75.6,68.2,29.90,SSW,192,0.0,0.0,78,0.00,,,0.00,WeatherCatV1.02B3,2013-06-04 14:28:00,
2013-06-04 09:33:00,75.8,68.1,29.90,NNE,14,0.0,0.0,77,0.00,,,0.00,WeatherCatV1.02B3,2013-06-04 14:33:00,
2013-06-04 09:38:00,76.0,68.3,29.90,NE,53,4.0,4.0,77,0.00,,,0.00,WeatherCatV1.02B3,2013-06-04 14:38:00,
2013-06-04 09:43:00,76.0,68.3,29.90,NNE,21,6.0,9.0,77,0.00,,,0.00,WeatherCatV1.02B3,2013-06-04 14:43:00,
2013-06-04 09:48:00,75.9,68.2,29.93,NNW,339,6.0,11.0,77,0.00,,,0.00,WeatherCatV1.02B3,2013-06-04 14:48:00,
2013-06-04 09:53:00,75.8,68.1,29.93,NE,44,0.0,15.0,77,0.00,,,0.00,WeatherCatV1.02B3,2013-06-04 14:53:00,
2013-06-04 09:58:00,76.0,68.6,29.93,NE,39,0.0,0.0,78,0.00,,,0.00,WeatherCatV1.02B3,2013-06-04 14:58:00,
2013-06-04 10:03:00,76.2,68.8,29.92,NNE,30,0.0,10.0,78,0.00,,,0.00,WeatherCatV1.02B3,2013-06-04 15:03:00,
2013-06-04 10:08:00,76.3,68.5,29.92,NE,53,3.0,11.0,77,0.00,,,0.00,WeatherCatV1.02B3,2013-06-04 15:08:00,
2013-06-04 10:13:00,76.7,68.5,29.92,NE,56,4.0,10.0,76,0.00,,,0.00,WeatherCatV1.02B3,2013-06-04 15:13:00,
2013-06-04 10:18:00,77.4,68.8,29.91,NE,42,0.0,1.0,75,0.00,,,0.00,WeatherCatV1.02B3,2013-06-04 15:18:00,
2013-06-04 10:23:00,78.0,69.0,29.91,NNE,22,0.0,6.0,74,0.00,,,0.00,WeatherCatV1.02B3,2013-06-04 15:23:00,
2013-06-04 10:28:00,78.6,69.2,29.91,NE,49,0.0,0.0,73,0.00,,,0.00,WeatherCatV1.02B3,2013-06-04 15:28:00,
2013-06-04 10:33:00,79.2,69.4,29.91,ESE,112,0.0,2.0,72,0.00,,,0.00,WeatherCatV1.02B3,2013-06-04 15:33:00,
2013-06-04 10:38:00,79.7,69.9,29.91,NE,46,0.0,0.0,72,0.00,,,0.00,WeatherCatV1.02B3,2013-06-04 15:38:00,
2013-06-04 10:43:00,80.3,69.2,29.91,North,5,0.0,1.0,69,0.00,,,0.00,WeatherCatV1.02B3,2013-06-04 15:43:00,
2013-06-04 10:48:00,80.8,70.5,29.90,North,10,0.0,2.0,71,0.00,,,0.00,WeatherCatV1.02B3,2013-06-04 15:48:00,
2013-06-04 10:53:00,81.3,69.7,29.90,NE,46,0.0,4.0,68,0.00,,,0.00,WeatherCatV1.02B3,2013-06-04 15:53:00,
2013-06-04 10:58:00,81.7,69.2,29.90,NNE,29,0.0,6.0,66,0.00,,,0.00,WeatherCatV1.02B3,2013-06-04 15:58:00,
2013-06-04 11:03:00,82.1,69.6,29.89,NNE,28,3.0,6.0,66,0.00,,,0.00,WeatherCatV1.02B3,2013-06-04 16:03:00,
2013-06-04 11:08:00,82.5,70.0,29.89,ESE,118,0.0,7.0,66,0.00,,,0.00,WeatherCatV1.02B3,2013-06-04 16:08:00,
2013-06-04 11:13:00,82.9,69.4,29.89,NE,49,0.0,9.0,64,0.00,,,0.00,WeatherCatV1.02B3,2013-06-04 16:13:00,
2013-06-04 11:18:00,83.0,70.0,29.88,North,11,0.0,7.0,65,0.00,,,0.00,WeatherCatV1.02B3,2013-06-04 16:18:00,
2013-06-04 11:23:00,83.2,69.3,29.88,ESE,109,0.0,0.0,63,0.00,,,0.00,WeatherCatV1.02B3,2013-06-04 16:23:00,
2013-06-04 11:28:00,83.5,69.5,29.88,ESE,111,0.0,7.0,63,0.00,,,0.00,WeatherCatV1.02B3,2013-06-04 16:28:00,
2013-06-04 11:33:00,83.9,69.9,29.86,SE,142,6.0,10.0,63,0.00,,,0.00,WeatherCatV1.02B3,2013-06-04 16:33:00,
2013-06-04 11:38:00,84.1,70.6,29.86,ENE,71,0.0,2.0,64,0.00,,,0.00,WeatherCatV1.02B3,2013-06-04 16:38:00,
2013-06-04 11:43:00,84.3,69.8,29.86,NE,37,0.0,7.0,62,0.00,,,0.00,WeatherCatV1.02B3,2013-06-04 16:43:00,
2013-06-04 11:48:00,84.6,70.1,29.85,SE,129,0.0,5.0,62,0.00,,,0.00,WeatherCatV1.02B3,2013-06-04 16:48:00,
2013-06-04 11:53:00,84.8,70.3,29.85,SSE,165,0.0,0.0,62,0.00,,,0.00,WeatherCatV1.02B3,2013-06-04 16:53:00,
2013-06-04 11:58:00,85.0,70.0,29.85,South,171,6.0,9.0,61,0.00,,,0.00,WeatherCatV1.02B3,2013-06-04 16:58:00,
2013-06-04 12:03:00,85.0,71.0,29.84,East,99,0.0,7.0,63,0.00,,,0.00,WeatherCatV1.02B3,2013-06-04 17:03:00,
2013-06-04 12:08:00,85.0,70.5,29.84,SE,126,0.0,8.0,62,0.00,,,0.00,WeatherCatV1.02B3,2013-06-04 17:08:00,
2013-06-04 12:13:00,85.1,70.6,29.84,SSE,168,2.0,6.0,62,0.00,,,0.00,WeatherCatV1.02B3,2013-06-04 17:13:00,
2013-06-04 12:18:00,85.2,71.2,29.82,North,0,1.0,4.0,63,0.00,,,0.00,WeatherCatV1.02B3,2013-06-04 17:18:00,
2013-06-04 12:23:00,85.5,70.5,29.82,SSE,165,1.0,6.0,61,0.00,,,0.00,WeatherCatV1.02B3,2013-06-04 17:23:00,
2013-06-04 12:28:00,85.7,71.6,29.82,SSE,158,4.0,11.0,63,0.00,,,0.00,WeatherCatV1.02B3,2013-06-04 17:28:00,
2013-06-04 12:33:00,85.9,71.8,29.81,South,190,1.0,12.0,63,0.00,,,0.00,WeatherCatV1.02B3,2013-06-04 17:33:00,
2013-06-04 12:38:00,85.7,71.6,29.81,SE,128,2.0,3.0,63,0.00,,,0.00,WeatherCatV1.02B3,2013-06-04 17:38:00,
2013-06-04 12:43:00,85.7,71.6,29.81,South,186,3.0,7.0,63,0.00,,,0.00,WeatherCatV1.02B3,2013-06-04 17:43:00,
2013-06-04 12:48:00,85.9,71.8,29.80,South,177,1.0,10.0,63,0.00,,,0.00,WeatherCatV1.02B3,2013-06-04 17:48:00,
2013-06-04 12:53:00,86.1,72.5,29.80,SW,217,0.0,7.0,64,0.00,,,0.00,WeatherCatV1.02B3,2013-06-04 17:53:00,
2013-06-04 12:58:00,86.4,72.3,29.80,SSW,192,0.0,7.0,63,0.00,,,0.00,WeatherCatV1.02B3,2013-06-04 17:58:00,
2013-06-04 13:03:00,86.5,72.8,29.79,SE,131,1.0,10.0,64,0.00,,,0.00,WeatherCatV1.02B3,2013-06-04 18:03:00,
2013-06-04 13:08:00,86.9,72.8,29.79,ESE,105,2.0,3.0,63,0.00,,,0.00,WeatherCatV1.02B3,2013-06-04 18:08:00,
2013-06-04 13:13:00,87.0,71.9,29.79,SW,221,4.0,9.0,61,0.00,,,0.00,WeatherCatV1.02B3,2013-06-04 18:13:00,
2013-06-04 13:18:00,87.0,72.8,29.78,SSW,194,2.0,7.0,63,0.00,,,0.00,WeatherCatV1.02B3,2013-06-04 18:18:00,
2013-06-04 13:23:00,87.2,72.1,29.78,SE,137,3.0,13.0,61,0.00,,,0.00,WeatherCatV1.02B3,2013-06-04 18:23:00,
2013-06-04 13:28:00,87.5,72.4,29.78,SSE,150,2.0,5.0,61,0.00,,,0.00,WeatherCatV1.02B3,2013-06-04 18:28:00,
2013-06-04 13:33:00,87.9,72.2,29.77,SE,138,6.0,7.0,60,0.00,,,0.00,WeatherCatV1.02B3,2013-06-04 18:33:00,
2013-06-04 13:38:00,88.3,72.6,29.77,South,182,1.0,7.0,60,0.00,,,0.00,WeatherCatV1.02B3,2013-06-04 18:38:00,
2013-06-04 13:43:00,88.6,72.9,29.77,SSE,158,2.0,4.0,60,0.00,,,0.00,WeatherCatV1.02B3,2013-06-04 18:43:00,
2013-06-04 13:48:00,89.0,73.3,29.76,SSE,153,1.0,9.0,60,0.00,,,0.00,WeatherCatV1.02B3,2013-06-04 18:48:00,
2013-06-04 13:53:00,89.3,73.1,29.76,SSW,194,1.0,5.0,59,0.00,,,0.00,WeatherCatV1.02B3,2013-06-04 18:53:00,
2013-06-04 13:58:00,89.3,72.0,29.76,SW,215,2.0,9.0,57,0.00,,,0.00,WeatherCatV1.02B3,2013-06-04 18:58:00,
2013-06-04 14:03:00,89.4,72.1,29.76,South,185,3.0,10.0,57,0.00,,,0.00,WeatherCatV1.02B3,2013-06-04 19:03:00,
2013-06-04 14:08:00,89.5,71.2,29.76,SSW,205,2.0,13.0,55,0.00,,,0.00,WeatherCatV1.02B3,2013-06-04 19:08:00,
2013-06-04 14:13:00,89.7,71.3,29.76,ESE,118,3.0,5.0,55,0.00,,,0.00,WeatherCatV1.02B3,2013-06-04 19:13:00,
2013-06-04 14:18:00,89.9,72.1,29.75,SE,136,2.0,11.0,56,0.00,,,0.00,WeatherCatV1.02B3,2013-06-04 19:18:00,
2013-06-04 14:23:00,90.0,72.2,29.75,SSE,167,2.0,10.0,56,0.00,,,0.00,WeatherCatV1.02B3,2013-06-04 19:23:00,
2013-06-04 14:28:00,90.1,72.2,29.75,South,177,0.0,5.0,56,0.00,,,0.00,WeatherCatV1.02B3,2013-06-04 19:28:00,
2013-06-04 14:33:00,90.4,72.0,29.74,South,190,0.0,4.0,55,0.00,,,0.00,WeatherCatV1.02B3,2013-06-04 19:33:00,
2013-06-04 14:38:00,90.7,71.2,29.74,SSE,155,1.0,13.0,53,0.00,,,0.00,WeatherCatV1.02B3,2013-06-04 19:38:00,
2013-06-04 14:43:00,91.1,71.5,29.74,ESE,117,7.0,9.0,53,0.00,,,0.00,WeatherCatV1.02B3,2013-06-04 19:43:00,
2013-06-04 14:48:00,91.2,72.7,29.74,SW,220,3.0,10.0,55,0.00,,,0.00,WeatherCatV1.02B3,2013-06-04 19:48:00,
2013-06-04 14:53:00,91.4,71.8,29.74,South,173,0.0,2.0,53,0.00,,,0.00,WeatherCatV1.02B3,2013-06-04 19:53:00,
2013-06-04 14:58:00,91.8,71.6,29.74,SSW,200,1.0,9.0,52,0.00,,,0.00,WeatherCatV1.02B3,2013-06-04 19:58:00,
2013-06-04 15:03:00,91.9,72.8,29.74,South,180,1.0,2.0,54,0.00,,,0.00,WeatherCatV1.02B3,2013-06-04 20:03:00,
2013-06-04 15:08:00,91.9,73.4,29.74,SW,227,9.0,9.0,55,0.00,,,0.00,WeatherCatV1.02B3,2013-06-04 20:08:00,
2013-06-04 15:13:00,92.0,71.8,29.74,SSE,168,1.0,11.0,52,0.00,,,0.00,WeatherCatV1.02B3,2013-06-04 20:13:00,
2013-06-04 15:18:00,91.9,70.6,29.74,SSW,192,3.0,12.0,50,0.00,,,0.00,WeatherCatV1.02B3,2013-06-04 20:18:00,
2013-06-04 15:23:00,91.9,70.6,29.74,WNW,282,0.0,6.0,50,0.00,,,0.00,WeatherCatV1.02B3,2013-06-04 20:23:00,
2013-06-04 15:28:00,92.1,72.5,29.74,SSW,200,1.0,4.0,53,0.00,,,0.00,WeatherCatV1.02B3,2013-06-04 20:28:00,
2013-06-04 15:33:00,92.3,71.5,29.73,SSE,159,1.0,4.0,51,0.00,,,0.00,WeatherCatV1.02B3,2013-06-04 20:33:00,
2013-06-04 15:38:00,92.4,72.7,29.73,South,188,0.0,2.0,53,0.00,,,0.00,WeatherCatV1.02B3,2013-06-04 20:38:00,
2013-06-04 15:43:00,92.5,73.4,29.73,SW,214,1.0,2.0,54,0.00,,,0.00,WeatherCatV1.02B3,2013-06-04 20:43:00,
2013-06-04 15:48:00,92.8,73.1,29.73,ESE,113,0.0,5.0,53,0.00,,,0.00,WeatherCatV1.02B3,2013-06-04 20:48:00,
2013-06-04 15:53:00,93.0,72.7,29.73,South,170,3.0,5.0,52,0.00,,,0.00,WeatherCatV1.02B3,2013-06-04 20:53:00,
2013-06-04 15:58:00,93.2,74.0,29.73,SSE,168,1.0,9.0,54,0.00,,,0.00,WeatherCatV1.02B3,2013-06-04 20:58:00,
2013-06-04 16:03:00,93.3,72.4,29.72,South,182,0.0,4.0,51,0.00,,,0.00,WeatherCatV1.02B3,2013-06-04 21:03:00,
2013-06-04 16:08:00,93.5,72.6,29.72,SE,129,0.0,4.0,51,0.00,,,0.00,WeatherCatV1.02B3,2013-06-04 21:08:00,
2013-06-04 16:13:00,93.5,72.6,29.72,NNW,342,0.0,6.0,51,0.00,,,0.00,WeatherCatV1.02B3,2013-06-04 21:13:00,
2013-06-04 16:18:00,93.4,72.5,29.72,South,186,0.0,2.0,51,0.00,,,0.00,WeatherCatV1.02B3,2013-06-04 21:18:00,
2013-06-04 16:23:00,93.3,72.4,29.72,WSW,240,4.0,4.0,51,0.00,,,0.00,WeatherCatV1.02B3,2013-06-04 21:23:00,
2013-06-04 16:28:00,93.4,71.9,29.72,South,178,2.0,4.0,50,0.00,,,0.00,WeatherCatV1.02B3,2013-06-04 21:28:00,
2013-06-04 16:33:00,93.5,72.6,29.72,ESE,113,1.0,3.0,51,0.00,,,0.00,WeatherCatV1.02B3,2013-06-04 21:33:00,
2013-06-04 16:38:00,93.5,72.6,29.72,SSW,200,0.0,4.0,51,0.00,,,0.00,WeatherCatV1.02B3,2013-06-04 21:38:00,
2013-06-04 16:43:00,93.5,73.2,29.72,ESE,116,2.0,2.0,52,0.00,,,0.00,WeatherCatV1.02B3,2013-06-04 21:43:00,
2013-06-04 16:48:00,93.4,71.9,29.71,SSE,167,1.0,10.0,50,0.00,,,0.00,WeatherCatV1.02B3,2013-06-04 21:48:00,
2013-06-04 16:53:00,93.3,71.8,29.71,SE,144,1.0,4.0,50,0.00,,,0.00,WeatherCatV1.02B3,2013-06-04 21:53:00,
2013-06-04 16:58:00,93.1,71.7,29.71,South,185,1.0,2.0,50,0.00,,,0.00,WeatherCatV1.02B3,2013-06-04 21:58:00,
2013-06-04 17:03:00,92.9,70.9,29.72,SW,236,0.0,7.0,49,0.00,,,0.00,WeatherCatV1.02B3,2013-06-04 22:03:00,
2013-06-04 17:08:00,92.8,70.8,29.72,SSW,193,3.0,5.0,49,0.00,,,0.00,WeatherCatV1.02B3,2013-06-04 22:08:00,
2013-06-04 17:13:00,92.7,71.3,29.72,SW,220,1.0,4.0,50,0.00,,,0.00,WeatherCatV1.02B3,2013-06-04 22:13:00,
2013-06-04 17:18:00,92.6,70.6,29.71,SSE,157,0.0,1.0,49,0.00,,,0.00,WeatherCatV1.02B3,2013-06-04 22:18:00,
2013-06-04 17:23:00,92.8,70.8,29.71,WSW,240,9.0,9.0,49,0.00,,,0.00,WeatherCatV1.02B3,2013-06-04 22:23:00,
2013-06-04 17:28:00,92.8,70.8,29.71,SW,216,1.0,4.0,49,0.00,,,0.00,WeatherCatV1.02B3,2013-06-04 22:28:00,
2013-06-04 17:33:00,92.8,70.8,29.71,South,188,0.0,2.0,49,0.00,,,0.00,WeatherCatV1.02B3,2013-06-04 22:33:00,
2013-06-04 17:38:00,92.6,71.2,29.71,SW,236,0.0,4.0,50,0.00,,,0.00,WeatherCatV1.02B3,2013-06-04 22:38:00,
2013-06-04 17:43:00,92.3,70.9,29.71,SW,214,2.0,4.0,50,0.00,,,0.00,WeatherCatV1.02B3,2013-06-04 22:43:00,
2013-06-04 17:48:00,91.9,71.7,29.71,SW,219,0.0,4.0,52,0.00,,,0.00,WeatherCatV1.02B3,2013-06-04 22:48:00,
2013-06-04 17:53:00,91.8,72.2,29.71,South,175,0.0,4.0,53,0.00,,,0.00,WeatherCatV1.02B3,2013-06-04 22:53:00,
2013-06-04 17:58:00,91.6,72.6,29.71,SSW,192,7.0,7.0,54,0.00,,,0.00,WeatherCatV1.02B3,2013-06-04 22:58:00,
2013-06-04 18:03:00,91.5,72.5,29.71,SSW,201,0.0,3.0,54,0.00,,,0.00,WeatherCatV1.02B3,2013-06-04 23:03:00,
2013-06-04 18:08:00,91.4,72.9,29.71,SE,130,0.0,4.0,55,0.00,,,0.00,WeatherCatV1.02B3,2013-06-04 23:08:00,
2013-06-04 18:13:00,91.1,71.5,29.71,South,190,2.0,10.0,53,0.00,,,0.00,WeatherCatV1.02B3,2013-06-04 23:13:00,
2013-06-04 18:18:00,90.8,71.3,29.71,SE,145,2.0,6.0,53,0.00,,,0.00,WeatherCatV1.02B3,2013-06-04 23:18:00,
2013-06-04 18:23:00,90.6,71.6,29.71,SSW,198,0.0,6.0,54,0.00,,,0.00,WeatherCatV1.02B3,2013-06-04 23:23:00,
2013-06-04 18:28:00,90.4,71.4,29.71,SSE,153,1.0,10.0,54,0.00,,,0.00,WeatherCatV1.02B3,2013-06-04 23:28:00,
2013-06-04 18:33:00,90.1,71.2,29.71,South,179,0.0,3.0,54,0.00,,,0.00,WeatherCatV1.02B3,2013-06-04 23:33:00,
2013-06-04 18:38:00,89.9,71.0,29.71,SSE,153,0.0,6.0,54,0.00,,,0.00,WeatherCatV1.02B3,2013-06-04 23:38:00,
2013-06-04 18:43:00,89.7,70.8,29.71,SE,130,2.0,9.0,54,0.00,,,0.00,WeatherCatV1.02B3,2013-06-04 23:43:00,
2013-06-04 18:48:00,89.5,71.2,29.71,SE,124,0.0,1.0,55,0.00,,,0.00,WeatherCatV1.02B3,2013-06-04 23:48:00,
2013-06-04 18:53:00,89.3,71.0,29.71,South,178,2.0,10.0,55,0.00,,,0.00,WeatherCatV1.02B3,2013-06-04 23:53:00,
2013-06-04 18:58:00,89.1,70.8,29.71,South,180,0.0,3.0,55,0.00,,,0.00,WeatherCatV1.02B3,2013-06-04 23:58:00,
2013-06-04 19:03:00,88.9,70.6,29.71,SSE,155,0.0,5.0,55,0.00,,,0.00,WeatherCatV1.02B3,2013-06-05 00:03:00,
2013-06-04 19:08:00,88.7,70.4,29.71,SSW,206,3.0,3.0,55,0.00,,,0.00,WeatherCatV1.02B3,2013-06-05 00:08:00,
2013-06-04 19:13:00,88.5,70.8,29.71,SSW,192,4.0,4.0,56,0.00,,,0.00,WeatherCatV1.02B3,2013-06-05 00:13:00,
2013-06-04 19:18:00,88.4,70.7,29.72,SE,140,0.0,1.0,56,0.00,,,0.00,WeatherCatV1.02B3,2013-06-05 00:18:00,
2013-06-04 19:23:00,88.2,71.0,29.72,SSE,161,0.0,1.0,57,0.00,,,0.00,WeatherCatV1.02B3,2013-06-05 00:23:00,
2013-06-04 19:28:00,88.0,70.8,29.72,East,100,2.0,2.0,57,0.00,,,0.00,WeatherCatV1.02B3,2013-06-05 00:28:00,
2013-06-04 19:33:00,87.9,70.7,29.72,SE,136,0.0,3.0,57,0.00,,,0.00,WeatherCatV1.02B3,2013-06-05 00:33:00,
2013-06-04 19:38:00,87.7,70.5,29.72,SSW,210,0.0,1.0,57,0.00,,,0.00,WeatherCatV1.02B3,2013-06-05 00:38:00,
2013-06-04 19:43:00,87.5,70.9,29.72,SE,128,0.0,0.0,58,0.00,,,0.00,WeatherCatV1.02B3,2013-06-05 00:43:00,
2013-06-04 19:48:00,87.3,70.7,29.73,South,182,0.0,0.0,58,0.00,,,0.00,WeatherCatV1.02B3,2013-06-05 00:48:00,
2013-06-04 19:53:00,87.1,70.5,29.73,SSW,194,1.0,2.0,58,0.00,,,0.00,WeatherCatV1.02B3,2013-06-05 00:53:00,
2013-06-04 19:58:00,86.9,70.8,29.73,SSE,165,0.0,1.0,59,0.00,,,0.00,WeatherCatV1.02B3,2013-06-05 00:58:00,
2013-06-04 20:03:00,86.6,71.0,29.74,SSE,163,0.0,0.0,60,0.00,,,0.00,WeatherCatV1.02B3,2013-06-05 01:03:00,
2013-06-04 20:08:00,86.3,70.7,29.74,SE,142,0.0,0.0,60,0.00,,,0.00,WeatherCatV1.02B3,2013-06-05 01:08:00,
2013-06-04 20:13:00,86.1,70.6,29.74,SE,132,0.0,1.0,60,0.00,,,0.00,WeatherCatV1.02B3,2013-06-05 01:13:00,
2013-06-04 20:18:00,85.7,70.7,29.74,SE,132,0.0,1.0,61,0.00,,,0.00,WeatherCatV1.02B3,2013-06-05 01:18:00,
2013-06-04 20:23:00,85.4,70.4,29.74,SSE,152,0.0,0.0,61,0.00,,,0.00,WeatherCatV1.02B3,2013-06-05 01:23:00,
2013-06-04 20:28:00,85.1,70.1,29.74,ESE,117,0.0,0.0,61,0.00,,,0.00,WeatherCatV1.02B3,2013-06-05 01:28:00,
2013-06-04 20:33:00,84.8,70.3,29.74,SSE,155,0.0,1.0,62,0.00,,,0.00,WeatherCatV1.02B3,2013-06-05 01:33:00,
2013-06-04 20:38:00,84.4,70.4,29.74,SSE,155,0.0,0.0,63,0.00,,,0.00,WeatherCatV1.02B3,2013-06-05 01:38:00,
2013-06-04 20:43:00,84.1,70.1,29.74,SSE,155,0.0,0.0,63,0.00,,,0.00,WeatherCatV1.02B3,2013-06-05 01:43:00,
2013-06-04 20:48:00,83.8,69.8,29.74,SSE,155,0.0,0.0,63,0.00,,,0.00,WeatherCatV1.02B3,2013-06-05 01:48:00,
2013-06-04 20:53:00,83.5,70.0,29.74,SSE,155,0.0,0.0,64,0.00,,,0.00,WeatherCatV1.02B3,2013-06-05 01:53:00,
2013-06-04 20:58:00,83.2,70.2,29.74,SSE,155,0.0,0.0,65,0.00,,,0.00,WeatherCatV1.02B3,2013-06-05 01:58:00,
2013-06-04 21:03:00,83.0,70.4,29.74,South,174,0.0,0.0,66,0.00,,,0.00,WeatherCatV1.02B3,2013-06-05 02:03:00,
2013-06-04 21:08:00,82.7,70.2,29.74,ESE,116,0.0,0.0,66,0.00,,,0.00,WeatherCatV1.02B3,2013-06-05 02:08:00,
2013-06-04 21:13:00,82.5,70.0,29.74,ESE,117,0.0,0.0,66,0.00,,,0.00,WeatherCatV1.02B3,2013-06-05 02:13:00,
2013-06-04 21:18:00,82.3,70.2,29.75,SSE,155,0.0,0.0,67,0.00,,,0.00,WeatherCatV1.02B3,2013-06-05 02:18:00,
2013-06-04 21:23:00,82.1,70.0,29.75,SSE,155,0.0,0.0,67,0.00,,,0.00,WeatherCatV1.02B3,2013-06-05 02:23:00,
2013-06-04 21:28:00,81.9,70.3,29.75,SSE,154,0.0,0.0,68,0.00,,,0.00,WeatherCatV1.02B3,2013-06-05 02:28:00,
2013-06-04 21:33:00,81.8,70.2,29.75,SSE,154,0.0,0.0,68,0.00,,,0.00,WeatherCatV1.02B3,2013-06-05 02:33:00,
2013-06-04 21:38:00,81.6,70.4,29.75,SE,138,0.0,0.0,69,0.00,,,0.00,WeatherCatV1.02B3,2013-06-05 02:38:00,
2013-06-04 21:43:00,81.5,70.3,29.75,SSE,159,0.0,0.0,69,0.00,,,0.00,WeatherCatV1.02B3,2013-06-05 02:43:00,
2013-06-04 21:48:00,81.3,70.1,29.76,SE,132,0.0,0.0,69,0.00,,,0.00,WeatherCatV1.02B3,2013-06-05 02:48:00,
2013-06-04 21:53:00,81.2,70.5,29.76,SE,132,0.0,1.0,70,0.00,,,0.00,WeatherCatV1.02B3,2013-06-05 02:53:00,
2013-06-04 21:58:00,81.1,70.8,29.76,SE,132,0.0,0.0,71,0.00,,,0.00,WeatherCatV1.02B3,2013-06-05 02:58:00,
2013-06-04 22:03:00,81.0,70.7,29.77,SE,132,0.0,0.0,71,0.00,,,0.00,WeatherCatV1.02B3,2013-06-05 03:03:00,
2013-06-04 22:08:00,80.9,70.6,29.77,SSE,164,0.0,0.0,71,0.00,,,0.00,WeatherCatV1.02B3,2013-06-05 03:08:00,
2013-06-04 22:13:00,80.8,70.9,29.77,SE,131,0.0,0.0,72,0.00,,,0.00,WeatherCatV1.02B3,2013-06-05 03:13:00,
2013-06-04 22:19:00,80.6,70.7,29.77,ESE,119,0.0,1.0,72,0.00,,,0.00,WeatherCatV1.02B3,2013-06-05 03:19:00,
2013-06-04 22:24:00,80.5,70.6,29.77,SE,136,0.0,2.0,72,0.00,,,0.00,WeatherCatV1.02B3,2013-06-05 03:24:00,
2013-06-04 22:29:00,80.4,70.5,29.77,SE,138,0.0,0.0,72,0.00,,,0.00,WeatherCatV1.02B3,2013-06-05 03:29:00,
2013-06-04 22:34:00,80.3,70.8,29.77,South,188,0.0,1.0,73,0.00,,,0.00,WeatherCatV1.02B3,2013-06-05 03:34:00,
2013-06-04 22:39:00,80.2,70.7,29.77,SSE,156,0.0,1.0,73,0.00,,,0.00,WeatherCatV1.02B3,2013-06-05 03:39:00,
2013-06-04 22:44:00,80.1,70.6,29.77,SSE,148,0.0,0.0,73,0.00,,,0.00,WeatherCatV1.02B3,2013-06-05 03:44:00,
2013-06-04 22:49:00,80.0,70.5,29.78,SE,143,0.0,0.0,73,0.00,,,0.00,WeatherCatV1.02B3,2013-06-05 03:49:00,
2013-06-04 22:54:00,79.9,70.4,29.78,SE,136,0.0,0.0,73,0.00,,,0.00,WeatherCatV1.02B3,2013-06-05 03:54:00,
2013-06-04 22:59:00,79.9,70.8,29.78,SSE,150,0.0,1.0,74,0.00,,,0.00,WeatherCatV1.02B3,2013-06-05 03:59:00,
2013-06-04 23:01:00,79.8,70.8,29.77,South,183,0.0,0.0,74,0.00,,,0.00,WeatherCatV1.02B3,2013-06-05 04:01:00,
2013-06-04 23:06:00,79.8,70.8,29.77,SE,134,3.0,3.0,74,0.00,,,0.00,WeatherCatV1.02B3,2013-06-05 04:06:00,
2013-06-04 23:11:00,79.7,70.7,29.77,SE,136,0.0,0.0,74,0.00,,,0.00,WeatherCatV1.02B3,2013-06-05 04:11:00,
2013-06-04 23:16:00,79.6,70.6,29.77,SSE,159,0.0,1.0,74,0.00,,,0.00,WeatherCatV1.02B3,2013-06-05 04:16:00,
2013-06-04 23:21:00,79.6,70.6,29.77,SSE,157,0.0,4.0,74,0.00,,,0.00,WeatherCatV1.02B3,2013-06-05 04:21:00,
2013-06-04 23:26:00,79.6,70.6,29.77,SE,131,2.0,3.0,74,0.00,,,0.00,WeatherCatV1.02B3,2013-06-05 04:26:00,
2013-06-04 23:31:00,79.6,70.6,29.77,SSE,158,0.0,3.0,74,0.00,,,0.00,WeatherCatV1.02B3,2013-06-05 04:31:00,
2013-06-04 23:36:00,79.6,70.6,29.77,South,184,0.0,0.0,74,0.00,,,0.00,WeatherCatV1.02B3,2013-06-05 04:36:00,
2013-06-04 23:41:00,79.6,70.6,29.77,SE,140,0.0,3.0,74,0.00,,,0.00,WeatherCatV1.02B3,2013-06-05 04:41:00,
2013-06-04 23:46:00,79.5,70.5,29.77,South,175,2.0,5.0,74,0.00,,,0.00,WeatherCatV1.02B3,2013-06-05 04:46:00,
2013-06-04 23:51:00,79.4,70.4,29.77,SSE,162,0.0,3.0,74,0.00,,,0.00,WeatherCatV1.02B3,2013-06-05 04:51:00,
2013-06-04 23:56:00,79.3,70.7,29.77,SSE,154,0.0,4.0,75,0.00,,,0.00,WeatherCatV1.02B3,2013-06-05 04:56:00,